CTN414 LDZA-EDDF

Flight info

Callsign CTN414
Flight time 1h 6m
Altitude 36000
Route PODET DCT RADLY DCT SIMBA DCT AKINI T161 DEBHI DEBHI1B
Aircraft A319/M-SDE3FGHIRWY/LB1

Departure

Time 2026-05-06 17:59
Airport Zagreb Franjo Tuđman International Airport (LDZA)

Arrival

Time 2026-05-06 19:05
Airport Frankfurt Main Airport (EDDF)
Time Latitude Longitude Altitude Speed Heading
2026-05-06 17:45 45.74206 16.07877 362 ft 0 kts 136°
2026-05-06 17:52 45.74211 16.07869 360 ft 4 kts 136°
2026-05-06 17:53 45.74231 16.07843 362 ft 4 kts 136°
2026-05-06 17:53 45.74249 16.07815 361 ft 4 kts 124°
2026-05-06 17:53 45.74260 16.07782 362 ft 4 kts 86°
2026-05-06 17:53 45.74255 16.07763 362 ft 0 kts 46°
2026-05-06 17:55 45.74256 16.07764 362 ft 1 kts 46°
2026-05-06 17:56 45.74270 16.07785 361 ft 6 kts 46°
2026-05-06 17:56 45.74316 16.07854 364 ft 13 kts 46°
2026-05-06 17:56 45.74396 16.07892 362 ft 14 kts 323°
2026-05-06 17:56 45.74472 16.07788 359 ft 16 kts 316°
2026-05-06 17:57 45.74566 16.07703 359 ft 17 kts 13°
2026-05-06 17:57 45.74659 16.07829 359 ft 20 kts 46°
2026-05-06 17:57 45.74767 16.07992 359 ft 25 kts 47°
2026-05-06 17:57 45.74885 16.08032 358 ft 20 kts 317°
2026-05-06 17:58 45.74942 16.07870 358 ft 20 kts 241°
2026-05-06 17:58 45.74778 16.07614 362 ft 67 kts 226°
2026-05-06 17:58 45.74298 16.06886 362 ft 131 kts 226°
2026-05-06 17:58 45.73606 16.05839 751 ft 144 kts 226°
2026-05-06 17:59 45.72938 16.04773 1410 ft 144 kts 228°
2026-05-06 17:59 45.72285 16.03698 2067 ft 142 kts 228°
2026-05-06 17:59 45.71605 16.02586 2529 ft 158 kts 228°
2026-05-06 17:59 45.70844 16.01345 2959 ft 172 kts 227°
2026-05-06 18:00 45.70025 16.00015 3442 ft 185 kts 228°
2026-05-06 18:00 45.69119 15.98546 3795 ft 209 kts 228°
2026-05-06 18:00 45.68172 15.96867 4373 ft 225 kts 240°
2026-05-06 18:00 45.67919 15.94609 5080 ft 244 kts 277°
2026-05-06 18:01 45.68759 15.92424 5818 ft 268 kts 312°
2026-05-06 18:01 45.70472 15.91201 6602 ft 289 kts 347°
2026-05-06 18:01 45.72513 15.91342 7453 ft 300 kts
2026-05-06 18:01 45.74541 15.92142 8347 ft 305 kts 15°
2026-05-06 18:02 45.76579 15.93065 9222 ft 309 kts 15°
2026-05-06 18:02 45.78645 15.94003 10052 ft 314 kts 15°
2026-05-06 18:02 45.80760 15.94857 10809 ft 318 kts 10°
2026-05-06 18:02 45.82949 15.95407 11585 ft 321 kts
2026-05-06 18:03 45.84424 15.95670 12109 ft 323 kts
2026-05-06 18:03 45.86072 15.95922 12611 ft 329 kts
2026-05-06 18:03 45.88358 15.96245 13421 ft 333 kts
2026-05-06 18:03 45.90677 15.96585 14160 ft 337 kts
2026-05-06 18:04 45.93023 15.96952 14826 ft 341 kts
2026-05-06 18:04 45.95407 15.96910 15278 ft 349 kts 348°
2026-05-06 18:04 45.97790 15.95951 15408 ft 364 kts 331°
2026-05-06 18:04 45.99968 15.94011 15537 ft 375 kts 315°
2026-05-06 18:05 46.01755 15.91217 15664 ft 387 kts 302°
2026-05-06 18:05 46.03434 15.88090 15903 ft 401 kts 303°
2026-05-06 18:05 46.05157 15.84893 16417 ft 406 kts 303°
2026-05-06 18:05 46.06902 15.81665 16911 ft 413 kts 303°
2026-05-06 18:06 46.08691 15.78348 17137 ft 424 kts 303°
2026-05-06 18:06 46.10509 15.74976 17592 ft 428 kts 303°
2026-05-06 18:06 46.12341 15.71576 18075 ft 431 kts 303°
2026-05-06 18:06 46.14189 15.68154 18524 ft 434 kts 303°
2026-05-06 18:07 46.16107 15.64777 18934 ft 439 kts 309°
2026-05-06 18:07 46.18383 15.61788 19349 ft 447 kts 318°
2026-05-06 18:07 46.21007 15.59308 19754 ft 453 kts 325°
2026-05-06 18:07 46.23715 15.56960 20156 ft 455 kts 325°
2026-05-06 18:08 46.26436 15.54596 20548 ft 458 kts 325°
2026-05-06 18:08 46.29169 15.52214 20934 ft 460 kts 324°
2026-05-06 18:08 46.31910 15.49819 21304 ft 462 kts 324°
2026-05-06 18:08 46.34666 15.47406 21650 ft 464 kts 325°
2026-05-06 18:09 46.37440 15.44971 21915 ft 468 kts 325°
2026-05-06 18:09 46.40181 15.42562 22489 ft 466 kts 325°
2026-05-06 18:09 46.42944 15.40134 23067 ft 463 kts 324°
2026-05-06 18:09 46.45693 15.37711 23636 ft 461 kts 324°
2026-05-06 18:10 46.48425 15.35301 24139 ft 459 kts 324°
2026-05-06 18:10 46.51143 15.32900 24655 ft 456 kts 324°
2026-05-06 18:10 46.53849 15.30510 25176 ft 454 kts 324°
2026-05-06 18:10 46.56538 15.28133 25721 ft 451 kts 324°
2026-05-06 18:11 46.59213 15.25765 26259 ft 449 kts 324°
2026-05-06 18:11 46.61884 15.23404 26680 ft 450 kts 324°
2026-05-06 18:11 46.64507 15.20928 27065 ft 449 kts 319°
2026-05-06 18:11 46.66885 15.18022 27449 ft 445 kts 312°
2026-05-06 18:12 46.69168 15.14969 27871 ft 446 kts 312°
2026-05-06 18:12 46.71457 15.11912 28266 ft 447 kts 312°
2026-05-06 18:12 46.73750 15.08853 28672 ft 447 kts 312°
2026-05-06 18:12 46.76050 15.05790 29095 ft 448 kts 312°
2026-05-06 18:13 46.78352 15.02725 29514 ft 448 kts 312°
2026-05-06 18:13 46.80650 14.99661 29927 ft 447 kts 312°
2026-05-06 18:13 46.82941 14.96596 30295 ft 447 kts 311°
2026-05-06 18:13 46.85227 14.93533 30663 ft 446 kts 311°
2026-05-06 18:14 46.87510 14.90468 31032 ft 445 kts 311°
2026-05-06 18:14 46.89789 14.87405 31412 ft 445 kts 311°
2026-05-06 18:14 46.92065 14.84336 31803 ft 445 kts 311°
2026-05-06 18:14 46.94336 14.81268 32189 ft 444 kts 311°
2026-05-06 18:15 46.96606 14.78204 32579 ft 443 kts 311°
2026-05-06 18:15 46.98867 14.75151 32966 ft 442 kts 311°
2026-05-06 18:15 47.01124 14.72106 33385 ft 440 kts 311°
2026-05-06 18:15 47.03372 14.69065 33794 ft 440 kts 311°
2026-05-06 18:16 47.05616 14.66024 34161 ft 438 kts 311°
2026-05-06 18:16 47.07850 14.62995 34545 ft 437 kts 310°
2026-05-06 18:16 47.10076 14.59972 34872 ft 436 kts 310°
2026-05-06 18:16 47.12305 14.56938 35101 ft 438 kts 310°
2026-05-06 18:17 47.14542 14.53889 35369 ft 439 kts 310°
2026-05-06 18:17 47.16626 14.51047 35605 ft 440 kts 310°
2026-05-06 18:17 47.18870 14.47984 35796 ft 442 kts 310°
2026-05-06 18:17 47.21132 14.44885 35850 ft 447 kts 310°
2026-05-06 18:18 47.25723 14.38573 35846 ft 456 kts 310°
2026-05-06 18:18 47.30379 14.32196 35838 ft 458 kts 310°
2026-05-06 18:19 47.35044 14.25805 35832 ft 458 kts 310°
2026-05-06 18:19 47.39676 14.19429 35823 ft 459 kts 310°
2026-05-06 18:20 47.44329 14.12980 35811 ft 459 kts 310°
2026-05-06 18:20 47.48984 14.06518 35812 ft 459 kts 310°
2026-05-06 18:21 47.53640 14.00039 35796 ft 460 kts 310°
2026-05-06 18:21 47.58296 13.93549 35796 ft 460 kts 310°
2026-05-06 18:22 47.62962 13.87045 35812 ft 460 kts 310°
2026-05-06 18:22 47.67623 13.80516 35785 ft 461 kts 310°
2026-05-06 18:23 47.72281 13.73959 35781 ft 462 kts 310°
2026-05-06 18:23 47.76946 13.67397 35769 ft 462 kts 310°
2026-05-06 18:24 47.81609 13.60813 35808 ft 462 kts 310°
2026-05-06 18:24 47.86270 13.54212 35776 ft 463 kts 309°
2026-05-06 18:25 47.90940 13.47591 35767 ft 464 kts 309°
2026-05-06 18:25 47.95617 13.40953 35751 ft 464 kts 309°
2026-05-06 18:26 48.00286 13.34289 35765 ft 464 kts 309°
2026-05-06 18:26 48.04946 13.27606 35794 ft 464 kts 309°
2026-05-06 18:27 48.09605 13.20910 35794 ft 465 kts 309°
2026-05-06 18:27 48.14269 13.14212 35786 ft 465 kts 309°
2026-05-06 18:28 48.18924 13.07504 35788 ft 464 kts 309°
2026-05-06 18:28 48.23561 13.00762 35785 ft 463 kts 308°
2026-05-06 18:29 48.27921 12.93704 35832 ft 460 kts 304°
2026-05-06 18:29 48.32072 12.86409 35807 ft 460 kts 304°
2026-05-06 18:30 48.36245 12.79118 35799 ft 461 kts 304°
2026-05-06 18:30 48.40482 12.71877 35795 ft 461 kts 305°
2026-05-06 18:31 48.44746 12.64647 35809 ft 462 kts 305°
2026-05-06 18:31 48.48996 12.57398 35793 ft 462 kts 305°
2026-05-06 18:32 48.53225 12.50114 35808 ft 461 kts 303°
2026-05-06 18:32 48.56589 12.42069 35807 ft 452 kts 294°
2026-05-06 18:33 48.59742 12.33863 35817 ft 452 kts 294°
2026-05-06 18:33 48.62878 12.25629 35812 ft 452 kts 293°
2026-05-06 18:34 48.65993 12.17435 35850 ft 453 kts 294°
2026-05-06 18:34 48.69160 12.09098 35822 ft 455 kts 294°
2026-05-06 18:35 48.72315 12.00787 35813 ft 456 kts 294°
2026-05-06 18:35 48.74737 11.94389 35815 ft 456 kts 294°
2026-05-06 18:36 48.77860 11.86095 35828 ft 456 kts 293°
2026-05-06 18:36 48.80996 11.77726 35845 ft 457 kts 293°
2026-05-06 18:37 48.83626 11.70704 35840 ft 457 kts 293°
2026-05-06 18:37 48.87268 11.60942 35834 ft 457 kts 293°
2026-05-06 18:38 48.90397 11.52530 35830 ft 457 kts 293°
2026-05-06 18:38 48.93511 11.44109 35839 ft 457 kts 294°
2026-05-06 18:39 48.96633 11.35677 35825 ft 458 kts 294°
2026-05-06 18:40 49.01313 11.22983 35320 ft 455 kts 293°
2026-05-06 18:40 49.04374 11.14632 35028 ft 452 kts 293°
2026-05-06 18:40 49.05900 11.10447 34663 ft 452 kts 292°
2026-05-06 18:41 49.06931 11.07616 34360 ft 453 kts 293°
2026-05-06 18:41 49.08464 11.03407 33671 ft 455 kts 293°
2026-05-06 18:41 49.10001 10.99178 32910 ft 457 kts 293°
2026-05-06 18:41 49.11544 10.94923 32161 ft 460 kts 293°
2026-05-06 18:42 49.13097 10.90635 31435 ft 463 kts 294°
2026-05-06 18:42 49.14658 10.86319 30728 ft 466 kts 294°
2026-05-06 18:42 49.16229 10.81972 30152 ft 469 kts 294°
2026-05-06 18:42 49.16697 10.80676 29996 ft 470 kts 294°
2026-05-06 18:43 49.18283 10.76294 29421 ft 473 kts 295°
2026-05-06 18:43 49.20110 10.72074 28853 ft 480 kts 304°
2026-05-06 18:43 49.22359 10.68258 28295 ft 486 kts 311°
2026-05-06 18:43 49.24725 10.64551 27750 ft 489 kts 311°
2026-05-06 18:44 49.27102 10.60816 27224 ft 491 kts 311°
2026-05-06 18:44 49.29488 10.57061 26698 ft 492 kts 311°
2026-05-06 18:44 49.31875 10.53294 26187 ft 493 kts 311°
2026-05-06 18:44 49.34264 10.49517 25679 ft 494 kts 311°
2026-05-06 18:45 49.36648 10.45716 25158 ft 494 kts 309°
2026-05-06 18:45 49.38842 10.41675 24669 ft 493 kts 304°
2026-05-06 18:45 49.40828 10.37398 24186 ft 491 kts 301°
2026-05-06 18:45 49.42680 10.33011 23713 ft 487 kts 299°
2026-05-06 18:46 49.44500 10.28699 23234 ft 474 kts 301°
2026-05-06 18:46 49.46308 10.24546 22709 ft 461 kts 301°
2026-05-06 18:46 49.48088 10.20539 22235 ft 449 kts 302°
2026-05-06 18:46 49.49853 10.16590 21704 ft 447 kts 302°
2026-05-06 18:47 49.51578 10.12712 21190 ft 443 kts 302°
2026-05-06 18:47 49.53304 10.08804 20674 ft 439 kts 301°
2026-05-06 18:47 49.55007 10.04952 20171 ft 432 kts 302°
2026-05-06 18:47 49.56705 10.01161 19671 ft 428 kts 302°
2026-05-06 18:48 49.58396 9.97411 19182 ft 424 kts 302°
2026-05-06 18:48 49.60074 9.93694 18704 ft 420 kts 302°
2026-05-06 18:48 49.61736 9.90010 18239 ft 417 kts 303°
2026-05-06 18:48 49.63384 9.86352 17719 ft 414 kts 303°
2026-05-06 18:49 49.65016 9.82720 17178 ft 410 kts 303°
2026-05-06 18:49 49.66632 9.79114 16707 ft 407 kts 303°
2026-05-06 18:49 49.68235 9.75528 16242 ft 404 kts 303°
2026-05-06 18:49 49.69822 9.71968 15784 ft 401 kts 303°
2026-05-06 18:50 49.71394 9.68428 15323 ft 398 kts 303°
2026-05-06 18:50 49.72952 9.64911 14877 ft 395 kts 303°
2026-05-06 18:50 49.74499 9.61418 14442 ft 392 kts 303°
2026-05-06 18:50 49.76037 9.57951 13999 ft 390 kts 303°
2026-05-06 18:51 49.77564 9.54503 13567 ft 387 kts 303°
2026-05-06 18:51 49.79078 9.51076 13089 ft 383 kts 303°
2026-05-06 18:51 49.80566 9.47708 12615 ft 375 kts 303°
2026-05-06 18:51 49.82025 9.44403 12153 ft 368 kts 302°
2026-05-06 18:52 49.83450 9.41166 11695 ft 360 kts 302°
2026-05-06 18:52 49.84849 9.37987 11254 ft 354 kts 302°
2026-05-06 18:52 49.86087 9.34749 10785 ft 345 kts 294°
2026-05-06 18:52 49.86912 9.31305 10347 ft 338 kts 284°
2026-05-06 18:53 49.87565 9.27838 9913 ft 332 kts 284°
2026-05-06 18:53 49.88217 9.24426 9408 ft 327 kts 285°
2026-05-06 18:53 49.88854 9.21115 8936 ft 313 kts 285°
2026-05-06 18:53 49.89463 9.17945 8465 ft 301 kts 285°
2026-05-06 18:54 49.90047 9.14894 8016 ft 290 kts 285°
2026-05-06 18:54 49.90605 9.11957 7605 ft 278 kts 284°
2026-05-06 18:54 49.91141 9.09135 7235 ft 269 kts 284°
2026-05-06 18:54 49.91667 9.06363 6992 ft 267 kts 284°
2026-05-06 18:55 49.92189 9.03611 6834 ft 265 kts 284°
2026-05-06 18:55 49.92708 9.00872 6828 ft 265 kts 284°
2026-05-06 18:55 49.93224 8.98126 6830 ft 265 kts 284°
2026-05-06 18:55 49.93737 8.95378 6828 ft 265 kts 284°
2026-05-06 18:56 49.94262 8.92627 6590 ft 265 kts 286°
2026-05-06 18:56 49.95179 8.90155 6340 ft 268 kts 309°
2026-05-06 18:56 49.96685 8.88382 6089 ft 272 kts 332°
2026-05-06 18:56 49.98499 8.87661 5833 ft 277 kts 355°
2026-05-06 18:57 50.00401 8.88122 5576 ft 280 kts 19°
2026-05-06 18:57 50.02038 8.89749 5316 ft 283 kts 44°
2026-05-06 18:57 50.03108 8.92283 5025 ft 282 kts 69°
2026-05-06 18:57 50.03784 8.95147 4766 ft 282 kts 64°
2026-05-06 18:58 50.04988 8.97489 4542 ft 275 kts 35°
2026-05-06 18:58 50.06673 8.98629 4333 ft 258 kts
2026-05-06 18:58 50.08421 8.98697 4129 ft 247 kts 355°
2026-05-06 18:58 50.10086 8.98478 4005 ft 234 kts 342°
2026-05-06 18:59 50.11446 8.97239 3997 ft 226 kts 309°
2026-05-06 18:59 50.12152 8.95164 3997 ft 210 kts 279°
2026-05-06 18:59 50.12110 8.93007 3996 ft 195 kts 253°
2026-05-06 18:59 50.11656 8.91036 3997 ft 192 kts 250°
2026-05-06 19:00 50.11200 8.89093 3991 ft 189 kts 250°
2026-05-06 19:00 50.10763 8.87233 4009 ft 175 kts 250°
2026-05-06 19:00 50.10352 8.85482 3971 ft 172 kts 250°
2026-05-06 19:00 50.09939 8.83727 3759 ft 173 kts 250°
2026-05-06 19:01 50.09527 8.81978 3543 ft 172 kts 251°
2026-05-06 19:01 50.09113 8.80220 3320 ft 173 kts 251°
2026-05-06 19:01 50.08696 8.78454 3087 ft 174 kts 251°
2026-05-06 19:01 50.08282 8.76698 2846 ft 171 kts 251°
2026-05-06 19:02 50.07873 8.74970 2617 ft 170 kts 251°
2026-05-06 19:02 50.07466 8.73247 2395 ft 170 kts 252°
2026-05-06 19:02 50.07058 8.71520 2158 ft 170 kts 252°
2026-05-06 19:02 50.06656 8.69829 1928 ft 159 kts 252°
2026-05-06 19:03 50.06298 8.68321 1725 ft 141 kts 252°
2026-05-06 19:03 50.05975 8.66939 1509 ft 132 kts 253°
2026-05-06 19:03 50.05670 8.65613 1313 ft 128 kts 253°
2026-05-06 19:03 50.05361 8.64311 1159 ft 128 kts 251°
2026-05-06 19:04 50.05050 8.63017 993 ft 127 kts 252°
2026-05-06 19:04 50.04736 8.61738 830 ft 128 kts 251°
2026-05-06 19:04 50.04436 8.60441 655 ft 128 kts 252°
2026-05-06 19:04 50.04128 8.59150 475 ft 127 kts 250°
2026-05-06 19:05 50.03824 8.57889 365 ft 115 kts 250°
2026-05-06 19:05 50.03595 8.56929 352 ft 71 kts 249°
2026-05-06 19:05 50.03457 8.56353 354 ft 38 kts 253°
2026-05-06 19:05 50.03441 8.56028 348 ft 22 kts 277°
2026-05-06 19:06 50.03461 8.55836 345 ft 9 kts 279°
2026-05-06 19:06 50.03472 8.55740 344 ft 9 kts 280°
2026-05-06 19:06 50.03482 8.55650 349 ft 5 kts 279°
2026-05-06 19:06 50.03482 8.55642 348 ft 1 kts 279°
2026-05-06 19:07 50.03487 8.55602 345 ft 8 kts 279°
2026-05-06 19:07 50.03489 8.55461 350 ft 18 kts 256°
2026-05-06 19:07 50.03434 8.55233 349 ft 27 kts 248°
2026-05-06 19:07 50.03360 8.54923 350 ft 33 kts 249°
2026-05-06 19:08 50.03287 8.54618 336 ft 17 kts 250°
2026-05-06 19:08 50.03316 8.54478 336 ft 16 kts 338°
2026-05-06 19:08 50.03390 8.54435 339 ft 0 kts 339°
2026-05-06 19:11 50.03393 8.54433 337 ft 2 kts 339°
2026-05-06 19:11 50.03441 8.54406 349 ft 11 kts 340°
2026-05-06 19:11 50.03527 8.54356 347 ft 14 kts 339°
2026-05-06 19:11 50.03631 8.54310 346 ft 16 kts
2026-05-06 19:12 50.03689 8.54443 345 ft 16 kts 70°
2026-05-06 19:12 50.03727 8.54598 348 ft 15 kts 70°
2026-05-06 19:12 50.03762 8.54744 349 ft 14 kts 69°
2026-05-06 19:12 50.03799 8.54900 349 ft 17 kts 70°
2026-05-06 19:13 50.03845 8.55098 351 ft 23 kts 70°
2026-05-06 19:13 50.03908 8.55360 349 ft 29 kts 69°
2026-05-06 19:13 50.03982 8.55671 351 ft 31 kts 69°
2026-05-06 19:13 50.04047 8.55935 357 ft 19 kts 60°
2026-05-06 19:14 50.04157 8.55935 355 ft 17 kts 339°
2026-05-06 19:14 50.04266 8.55958 358 ft 16 kts 14°
2026-05-06 19:14 50.04371 8.55915 360 ft 15 kts 343°
2026-05-06 19:14 50.04483 8.55936 357 ft 18 kts 16°
2026-05-06 19:15 50.04581 8.56076 356 ft 22 kts 69°
2026-05-06 19:15 50.04640 8.56323 357 ft 26 kts 69°
2026-05-06 19:15 50.04712 8.56573 358 ft 16 kts 63°
2026-05-06 19:15 50.04690 8.56692 357 ft 9 kts 114°
2026-05-06 19:16 50.04687 8.56700 356 ft 0 kts 115°